Boone County Airport
KHRO : now visible

Airfield :











YOU CAN JOIN US ON...

 
LOGIN :

Register | Disclaimer

   EN    FR    IT 

 









Legend :    VFR   Marginal VFR   IFR   Intensive IFR   Very Intensive IFR
Visi :
Ceiling :
>= 8 km
>= 3000ft
5 to 8 km
1000 to 3000 ft
1500m to 5 km
500 to 1000 ft
800 to 1500m
200 to 500 ft
< 800m
< 200 ft
Symbols :   Thunderstorms  Fog  Heavy snow  Heavy precipitations  Wind > 20 kt






- Airport Elevation : 1365 ft
- IATA code : HRO


KHRO - Boone County

CURRENT METAR :
  • 060453Z AUTO 08003KT 10SM CLR 02/M04 A3032 RMK AO2 SLP270 T00221039

EXPIRED METARs :
  • 060353Z AUTO 00000KT 10SM FEW120 03/M02 A3030 RMK AO2 SLP265 T00331017
  • 060253Z AUTO 00000KT 10SM FEW110 03/M01 A3028 RMK AO2 SLP259 T00331011 53010

TAF KHRO
Valid from the 06 at 00:00 until the 07 at 00:00 UTC


052321Z 0600/0624 07008KT P6SM VCSH BKN060
FM060600 VRB03KT P6SM SCT060 BKN100
FM061400 11004KT P6SM SCT250
KZME FIR / North America



MET'MAP, your aeronautical weather chart ! - Copyright ORBIFLY December 2007 - Disclaimer

ORBIFLY MET'MAP TEAM :

Programming & Development : Alexandra Zaïnal
Concept & original design : Baudouin d'Aumeries
Assistance for programming : Marc-Olivier Méhu
Technical & hardware support : Manuel Goepfert

Contact : metmap@orbifly.com




SOURCES & CREDITS :

   NOAA       Earth
Advisory